INTELSAT 905 (IS-905) (27438 NORAD) Tracking and Keplerian Element Data

This shows tracking and keplerian element data for the satellite.

Feedback or suggestion? Click here.




ElementValue
Catalog27438
NameINTELSAT 905 (IS-905)
Epoch Orbit4636
Epoch Day34.46439104
Epoch Year2025
RAAN75.7902
Inclination5.4924
Eccentricity0.0002796
Argument of Perigee245.1927
Mean Anonmoly315.5756
Mean Motion1.00271658
Decay Rate-1.83E-06
L11 27438U 02027A 25034.46439104 -.00000183 00000+0 00000+0 0 9991
L22 27438 5.4924 75.7902 0002796 245.1927 315.5756 1.00271658 46365



Live tracking and technical data element details for INTELSAT 905 (IS-905) (NORAD 27438). INTELSAT 905 (IS-905) can be tracked NOW for your location showing map with azimuth and elevation plus other details from your city location.







IsCatalogInMostPopularTable: catalog: 27438, numindb: 698
Update: records affected: 1



GetName: 27438 INTELSAT 905 (IS-905)

Hit Count: updated at: Sat, 17 May 2025 08:30:52 GMT